Home > Weather > Telford > Past weeks

Flag for United Kingdom Weather for the Past 2 Weeks in Telford, England, United Kingdom

Now
37 °F

Passing clouds.


Feels Like: 31 °F
Forecast: N/A
Wind: 9 mph from West

Location: Shawbury

Current Time: Feb 10, 2016 at 9:08:18 PM

Latest Report: Feb 10, 2016 at 7:50 PM


Visibility: N/A

Pressure: 29.56 "Hg

Humidity: 81%

Dew point: 32 °F

Location of TelfordLocation

Historic Weather in Telford — Graph

°F

Telford Temperature Yesterday

Maximum temperature yesterday: 43 °F (at 11:50 AM)
Minimum temperature yesterday: 34 °F (at 7:50 AM)
Average temperature yesterday: 38 °F

High & Low Weather Summary for the Past Weeks

 TemperatureHumidityPressure
High57 °F (Jan 27, 9:50 AM)100% (Jan 31, 10:50 AM)30.30 "Hg (Jan 31, 10:50 AM)
Low34 °F (Jan 28, 1:50 AM)50% (Feb 2, 2:50 AM)28.74 "Hg (Feb 8, 7:50 AM)
Average45 °F80%29.64 "Hg
* Reported Jan 26 7:50 PM — Feb 10 7:50 PM, Telford, Weather by CustomWeather, © 2016

Note: Actual official high and low records may vary slightly from our data, if they occured in-between our weather recording intervals... More about our weather records

Advertising

Telford Weather History for the Previous 24 Hours

 ConditionsComfort  
Time TempWeatherWind HumidityBarometerVisibility
7:50 PM
Wed, Feb 10
37 °FPassing clouds.9 mph81%29.56 "HgN/A
5:50 PM39 °FPassing clouds.8 mph75%29.53 "HgN/A
4:50 PM43 °FQuite cool.6 mph71%29.53 "HgN/A
3:50 PM45 °FScattered clouds.8 mph71%29.50 "HgN/A
2:50 PM45 °FScattered clouds.12 mph71%29.50 "HgN/A
1:50 PM46 °FScattered clouds.7 mph66%29.47 "HgN/A
12:50 PM45 °FPartly sunny.9 mph66%29.47 "HgN/A
11:50 AM46 °FScattered clouds.13 mph66%29.45 "HgN/A
8:50 AM41 °FScattered showers. Broken clouds.10 mph87%29.39 "HgN/A
7:50 AM39 °FPartly sunny.9 mph93%29.09 "HgN/A
4:50 AM41 °FRain showers. Passing clouds.12 mph87%29.27 "HgN/A
3:50 AM41 °FPartly cloudy.14 mph87%29.27 "HgN/A
2:50 AM41 °FRain. Passing clouds.16 mph87%29.24 "Hg4 mi
1:50 AM41 °FRain showers. Passing clouds.12 mph87%29.21 "Hg3 mi
12:50 AM37 °FPassing clouds.9 mph93%29.21 "HgN/A
11:50 PM
Tue, Feb 9
37 °FPassing clouds.10 mph93%29.18 "HgN/A
10:50 PM39 °FPassing clouds.8 mph93%29.15 "HgN/A
9:50 PM34 °FPassing clouds.8 mph93%29.12 "HgN/A
Weather by CustomWeather, © 2016

See weather overviewHow to use our weather pages